Wind_Speed
25 25 26 25 24 24 23 21 19 17 16 15 14 14 14 13 12 11 11 10 9 9 9 9 8 8 8 7 8 8 8 8 9 11 11 14 15 17 18 19 20 22 22 22
27 26 26 26 25 24 23 22 20 18 17 16 15 15 13 12 12 12 11 10 9 9 10 9 8 8 8 8 8 8 8 9 10 10 12 14 15 16 17 18 19 21 22 22
28 28 27 28 26 25 24 23 21 19 17 16 15 15 14 13 13 13 12 11 11 11 11 11 10 10 10 9 8 9 8 8 9 10 11 12 13 14 15 18 19 21 22 23
28 29 31 28 27 26 25 23 21 20 19 17 16 15 14 14 14 14 14 14 13 12 12 12 12 12 11 10 9 8 8 8 8 9 10 11 11 13 14 15 17 19 20 21
31 31 31 29 28 27 25 24 23 21 20 19 18 17 16 16 15 14 14 14 14 13 13 13 13 12 11 10 10 10 10 9 9 9 10 10 11 12 13 14 16 18 19 20
33 32 32 29 27 26 25 24 23 22 21 20 19 19 18 17 17 16 15 15 15 15 14 14 14 13 12 11 11 11 12 11 11 12 12 12 12 13 14 15 16 18 19 20
33 33 31 29 28 27 26 24 23 22 21 20 20 19 18 18 17 17 16 16 16 15 15 14 13 13 13 13 13 12 13 13 14 14 14 14 14 15 15 17 18 19 20 21
33 33 31 28 29 28 27 25 24 22 22 21 21 20 20 19 18 17 17 17 16 16 16 16 15 14 14 14 15 15 15 15 15 15 15 16 16 16 17 17 18 19 21 23
31 31 29 28 28 27 26 25 24 23 22 21 22 21 21 20 19 19 19 19 19 18 17 17 17 16 16 16 16 17 17 17 17 17 17 17 17 18 18 18 19 20 21 22
31 30 28 27 27 26 24 23 23 23 22 21 21 22 22 20 20 20 20 19 18 18 17 17 17 17 17 18 18 17 18 18 18 18 18 18 18 19 19 19 20 21 21 21
31 30 28 27 27 26 25 24 24 23 23 22 21 21 22 21 20 20 19 19 19 18 17 17 17 17 17 18 17 17 18 19 18 18 18 19 20 21 21 22 22 22 22 23
28 29 28 26 26 25 25 24 24 23 22 22 21 22 21 20 20 20 19 18 18 18 18 18 18 18 17 17 18 18 18 18 19 19 19 20 21 21 21 22 22 23 24 24
25 26 25 24 24 24 24 23 22 21 21 21 21 20 19 19 18 18 18 17 17 17 18 17 17 17 16 17 17 18 18 18 18 19 20 21 21 22 22 23 23 24 25 25
23 23 23 22 22 23 23 22 21 21 21 21 20 19 18 17 17 18 17 16 16 16 16 16 15 15 16 16 17 17 17 17 18 18 19 20 21 22 22 23 23 24 24 25
22 22 22 22 21 21 22 21 21 20 20 19 19 18 18 17 17 17 17 16 16 16 15 15 15 15 16 16 16 17 17 17 18 19 20 21 22 23 23 24 24 25 26 26
22 21 21 21 20 20 19 19 19 19 19 18 18 18 18 17 16 16 16 15 15 15 15 16 15 15 15 16 16 16 17 17 18 18 19 20 21 22 23 23 24 25 26 28
20 20 20 20 20 19 18 17 16 17 17 17 17 17 17 17 16 16 15 15 15 15 15 15 15 15 15 16 16 16 16 17 17 17 18 18 19 20 22 23 25 26 27 29
18 19 20 19 18 17 17 16 15 15 15 16 16 17 16 16 16 15 15 15 14 14 14 14 14 14 14 15 16 16 16 16 16 17 18 20 21 22 23 24 25 27 28 29
19 19 19 18 18 17 17 16 15 15 15 14 15 15 15 15 15 15 15 15 14 14 13 13 13 14 14 15 15 16 17 17 18 19 20 21 22 23 25 26 28 29 30 32
19 18 18 18 18 18 17 16 15 15 14 14 14 14 14 14 13 13 14 14 13 13 13 13 13 14 15 15 16 17 18 19 20 21 22 23 25 26 28 29 31 32 33 35
17 17 17 17 18 18 17 16 15 15 14 14 14 14 13 13 13 13 13 13 13 13 13 14 15 15 16 17 18 19 20 21 22 23 24 26 28 29 30 32 33 34 35 37
16 16 16 16 16 16 15 15 14 14 13 13 13 12 12 12 13 13 13 13 13 14 14 15 16 17 18 19 19 20 21 23 24 26 27 29 30 31 33 34 35 36 37 38
17 17 16 15 15 14 14 14 14 13 13 12 12 12 12 12 12 12 13 13 14 15 15 16 17 18 19 20 21 22 24 25 26 28 29 30 32 33 34 35 36 37 38 39
16 16 15 15 15 14 14 13 13 13 12 12 11 11 11 12 12 13 13 14 15 16 17 18 19 20 21 23 24 25 26 27 29 30 31 32 33 34 35 36 37 37 38 38
16 16 15 14 13 13 12 12 11 11 12 12 12 12 12 13 13 14 15 16 16 17 19 20 21 23 24 25 26 27 28 29 30 31 32 33 34 35 35 35 36 36 36 35
15 15 15 14 14 13 12 11 11 11 12 12 13 13 14 15 15 16 16 17 18 19 21 22 23 25 25 26 27 28 29 30 31 32 33 33 33 33 33 33 33 33 32 31
15 15 15 14 13 13 12 12 12 13 13 13 14 15 15 15 16 17 18 19 20 21 22 23 24 25 26 27 28 29 30 31 31 32 32 32 32 32 32 31 31 30 29 28
Wind_Direction
215 217 221 226 228 230 235 242 248 252 252 252 257 256 259 262 263 260 261 264 271 269 268 273 277 283 289 270 259 253 254 250 243 238 235 229 229 229 230 230 230 230 234 236
216 217 222 226 228 230 235 241 247 251 251 253 256 257 257 259 260 258 260 263 267 269 273 277 275 277 282 274 257 253 257 254 250 248 242 235 232 232 233 232 232 233 235 240
220 221 225 227 229 234 239 244 248 250 249 252 255 258 258 260 261 257 258 263 263 267 273 277 275 275 271 269 261 256 257 257 251 247 241 238 238 241 241 237 238 239 239 242
226 226 229 230 233 238 242 245 247 247 247 248 255 257 262 263 263 262 260 263 265 266 268 270 270 270 270 262 257 253 256 261 256 250 247 245 248 249 246 242 240 240 243 243
231 231 234 234 235 238 242 245 247 248 249 249 254 259 261 260 262 264 260 262 263 267 269 266 266 266 263 258 255 252 255 259 258 255 253 248 249 251 250 249 247 246 248 248
233 233 234 235 238 241 242 244 246 247 250 252 254 258 259 257 259 262 263 263 262 265 266 267 264 262 257 255 256 256 257 257 259 256 256 254 253 255 257 254 254 254 253 253
232 235 236 237 239 243 244 244 245 247 249 253 254 254 254 254 257 260 263 262 262 265 265 265 265 261 256 254 256 258 259 258 258 256 257 256 257 260 263 262 261 261 260 260
232 235 237 239 241 242 244 243 244 245 248 250 252 252 251 252 255 257 260 260 260 262 261 259 261 260 260 260 258 258 259 258 256 256 256 258 261 265 267 266 266 267 264 263
232 234 236 238 239 240 242 242 244 246 245 248 249 247 249 252 255 256 257 257 256 256 258 259 258 258 261 259 260 258 257 255 255 256 257 260 264 267 268 268 269 269 267 266
232 234 233 234 235 238 239 240 242 244 243 246 246 247 250 254 256 257 258 257 255 255 257 258 258 258 258 260 261 259 256 255 255 258 260 262 264 266 267 267 268 269 270 271
230 231 233 234 234 237 239 241 242 243 242 243 246 248 250 252 253 252 256 253 253 254 254 255 256 257 257 259 259 259 258 257 257 260 262 265 268 266 267 269 270 270 271 273
229 230 230 231 232 235 237 238 237 238 239 240 243 247 247 249 249 249 251 250 251 253 255 254 253 252 253 256 258 259 260 260 260 260 262 266 268 268 269 272 273 272 272 274
223 222 223 226 228 230 233 235 234 233 233 237 240 243 247 246 243 245 249 251 252 252 251 248 248 250 254 257 259 262 263 263 263 263 264 267 267 268 269 271 273 274 275 275
217 216 218 222 226 229 231 233 233 233 234 235 238 240 243 242 241 244 248 250 250 247 245 244 246 251 255 256 258 261 263 265 265 265 266 267 268 271 272 273 275 276 277 277
214 216 216 218 225 226 228 231 231 231 231 232 234 236 237 240 242 244 246 245 244 243 243 245 249 255 256 257 261 262 263 266 268 268 268 269 271 274 275 277 278 279 280 280
210 209 210 215 217 218 223 225 222 222 223 226 230 232 233 235 238 241 241 238 237 240 244 246 249 253 255 258 262 263 265 268 270 271 273 273 275 277 280 281 282 283 283 284
204 205 207 208 212 216 218 218 217 219 221 224 227 227 229 233 235 235 234 231 234 239 243 247 251 256 259 262 264 266 269 271 272 273 275 277 280 283 284 286 287 288 289 290
205 206 205 206 210 213 216 217 214 215 218 220 222 224 227 230 230 231 231 233 236 240 245 249 253 258 262 265 267 269 271 274 276 278 280 282 285 287 289 291 292 292 293 293
202 204 206 208 210 212 214 216 216 216 217 218 220 222 224 227 229 230 231 233 235 241 247 252 257 261 264 266 270 272 276 277 280 283 285 286 289 291 293 294 295 295 295 295
197 198 201 203 205 205 208 210 211 212 215 218 219 220 222 225 229 232 234 236 240 245 251 257 261 266 269 271 274 276 278 280 282 284 287 289 292 293 294 295 296 296 297 298
191 193 197 201 200 201 203 204 206 208 210 214 218 220 223 226 229 233 236 241 246 252 256 262 267 270 272 275 278 280 281 283 286 288 290 292 294 295 296 297 298 298 299 299
190 190 191 191 194 197 199 201 202 204 208 213 217 222 227 232 235 238 243 248 252 257 263 269 272 274 276 278 281 283 285 288 290 292 294 295 296 297 298 299 299 300 301 301
183 183 185 185 187 191 197 201 203 206 209 213 218 225 231 235 240 245 250 254 259 264 271 275 277 279 281 283 286 288 290 291 293 295 296 297 299 299 300 301 301 302 303 303
183 185 188 189 190 194 199 202 206 210 215 219 224 231 238 244 249 255 261 266 269 273 276 278 280 282 284 286 288 291 292 294 296 297 299 300 301 301 302 303 304 305 305 305
187 189 192 192 194 198 202 207 214 221 227 232 237 243 248 253 258 264 270 274 276 277 278 280 282 285 287 289 291 293 295 296 298 300 301 302 303 304 305 306 307 308 308 308
186 187 189 191 195 200 207 214 223 231 236 240 243 249 255 261 266 269 273 275 277 280 282 284 286 289 291 293 295 296 298 299 300 302 303 304 305 306 308 309 310 310 310 311
188 189 193 198 204 209 216 225 233 237 242 247 252 256 261 266 269 273 276 278 280 283 285 288 290 292 294 295 297 298 299 301 302 303 304 305 306 307 308 309 310 311 312 312
Height
5775 5779 5782 5786 5789 5792 5795 5798 5801 5803 5805 5807 5808 5810 5810 5811 5812 5813 5813 5813 5813 5813 5813 5813 5813 5812 5811 5811 5811 5811 5812 5812 5813 5814 5815 5816 5818 5820 5822 5824 5827 5829 5832 5834
5770 5774 5778 5781 5785 5788 5791 5794 5796 5799 5801 5803 5804 5806 5807 5808 5809 5810 5810 5810 5810 5810 5810 5810 5810 5810 5809 5809 5809 5810 5810 5811 5811 5812 5813 5814 5816 5818 5819 5821 5823 5826 5828 5830
5765 5769 5772 5776 5780 5783 5786 5789 5793 5795 5798 5799 5801 5802 5803 5804 5805 5806 5807 5807 5807 5807 5807 5807 5807 5807 5807 5807 5807 5808 5808 5809 5809 5810 5811 5812 5814 5815 5816 5818 5820 5822 5823 5825
5760 5764 5767 5773 5775 5779 5782 5785 5788 5791 5793 5795 5797 5798 5799 5800 5801 5802 5803 5804 5804 5804 5804 5804 5804 5804 5804 5805 5805 5806 5807 5807 5808 5809 5809 5810 5811 5812 5814 5815 5816 5818 5819 5820
5754 5757 5761 5766 5770 5774 5777 5780 5783 5786 5788 5790 5792 5794 5795 5796 5797 5798 5799 5800 5800 5800 5800 5800 5800 5800 5801 5802 5803 5804 5805 5805 5806 5807 5807 5808 5809 5810 5811 5812 5813 5814 5815 5816
5747 5751 5755 5762 5765 5768 5772 5774 5778 5781 5783 5785 5787 5789 5791 5791 5792 5793 5794 5795 5796 5796 5796 5796 5796 5797 5798 5799 5800 5801 5802 5803 5804 5804 5805 5805 5806 5807 5808 5808 5809 5810 5811 5812
5741 5745 5750 5755 5759 5763 5767 5771 5773 5775 5777 5779 5782 5784 5786 5787 5788 5789 5789 5790 5791 5791 5792 5792 5792 5793 5795 5796 5797 5798 5799 5799 5800 5801 5801 5802 5802 5803 5804 5804 5805 5805 5806 5807
5734 5738 5746 5749 5753 5757 5760 5764 5766 5769 5772 5774 5776 5778 5780 5781 5783 5784 5785 5785 5786 5787 5787 5788 5789 5790 5791 5792 5793 5794 5795 5796 5796 5797 5797 5798 5798 5799 5799 5799 5800 5801 5801 5801
5729 5735 5739 5743 5747 5751 5754 5757 5760 5763 5766 5768 5771 5773 5775 5776 5777 5778 5779 5780 5781 5782 5783 5784 5785 5786 5787 5788 5788 5789 5790 5791 5792 5793 5793 5793 5794 5794 5794 5795 5795 5795 5795 5795
5722 5727 5732 5736 5741 5744 5748 5751 5754 5757 5760 5762 5765 5767 5769 5771 5772 5773 5773 5775 5776 5777 5778 5779 5780 5781 5782 5783 5783 5784 5785 5786 5787 5788 5788 5788 5789 5789 5789 5789 5789 5789 5789 5788
5716 5721 5726 5730 5734 5738 5742 5745 5748 5751 5754 5756 5759 5761 5763 5765 5766 5767 5768 5770 5771 5772 5773 5775 5776 5776 5777 5778 5779 5780 5780 5781 5782 5782 5783 5783 5783 5783 5783 5783 5783 5783 5783 5782
5711 5716 5720 5724 5728 5732 5736 5739 5742 5745 5748 5751 5753 5755 5757 5759 5760 5761 5763 5764 5765 5767 5768 5769 5770 5771 5772 5773 5774 5774 5775 5776 5776 5777 5777 5777 5777 5777 5777 5777 5777 5777 5776 5776
5705 5710 5714 5719 5723 5727 5730 5733 5736 5739 5742 5745 5748 5750 5752 5753 5754 5756 5758 5759 5760 5762 5763 5764 5765 5766 5767 5768 5769 5769 5770 5770 5770 5771 5771 5771 5771 5771 5771 5771 5771 5770 5770 5769
5700 5705 5710 5714 5718 5722 5725 5728 5731 5734 5737 5740 5742 5745 5747 5748 5750 5752 5753 5755 5756 5757 5758 5759 5761 5762 5763 5764 5764 5765 5765 5765 5765 5765 5765 5765 5766 5765 5765 5764 5764 5763 5763 5762
5696 5701 5705 5710 5713 5717 5720 5723 5726 5729 5732 5735 5738 5740 5742 5744 5746 5747 5749 5750 5752 5752 5754 5755 5756 5757 5758 5759 5760 5760 5760 5760 5760 5760 5760 5760 5760 5759 5758 5757 5757 5756 5755 5754
5692 5697 5701 5705 5709 5713 5716 5719 5722 5725 5728 5731 5733 5736 5738 5740 5742 5743 5745 5746 5747 5748 5749 5750 5752 5753 5753 5754 5755 5755 5755 5755 5755 5755 5755 5754 5754 5753 5752 5751 5750 5749 5748 5746
5689 5694 5698 5702 5706 5709 5712 5715 5718 5721 5723 5726 5729 5731 5734 5736 5737 5739 5740 5742 5743 5744 5745 5746 5747 5748 5749 5749 5750 5750 5750 5750 5750 5749 5749 5749 5748 5747 5746 5745 5744 5742 5740 5738
5687 5691 5694 5698 5702 5705 5709 5712 5714 5717 5720 5722 5725 5727 5729 5731 5733 5735 5737 5738 5740 5741 5741 5742 5743 5744 5744 5745 5745 5745 5745 5745 5745 5744 5744 5743 5742 5741 5740 5738 5736 5734 5732 5730
5684 5688 5691 5695 5699 5702 5706 5709 5711 5714 5717 5719 5721 5724 5726 5728 5730 5732 5733 5735 5736 5737 5738 5738 5739 5740 5740 5740 5740 5740 5740 5740 5740 5739 5738 5737 5736 5734 5733 5731 5729 5726 5724 5721
5681 5685 5689 5692 5696 5699 5703 5706 5709 5711 5714 5716 5719 5721 5723 5725 5727 5728 5730 5731 5732 5733 5734 5735 5735 5736 5736 5736 5736 5735 5735 5734 5734 5733 5732 5730 5729 5727 5725 5723 5720 5717 5714 5711
5680 5683 5687 5691 5694 5697 5700 5703 5706 5709 5712 5714 5717 5719 5720 5722 5724 5725 5727 5728 5729 5729 5730 5731 5731 5731 5731 5731 5731 5730 5730 5729 5728 5726 5725 5723 5721 5719 5716 5714 5711 5708 5704 5701
5679 5682 5686 5689 5692 5696 5699 5702 5704 5707 5710 5712 5714 5716 5718 5719 5721 5722 5723 5724 5725 5726 5726 5726 5726 5726 5726 5726 5725 5724 5723 5722 5721 5719 5717 5715 5712 5710 5707 5704 5701 5697 5694 5690
5678 5682 5685 5688 5691 5694 5697 5700 5703 5705 5708 5710 5712 5713 5715 5716 5718 5719 5720 5721 5721 5722 5722 5722 5722 5721 5721 5720 5719 5718 5717 5715 5713 5711 5709 5706 5703 5700 5697 5694 5690 5686 5683 5679
5678 5681 5684 5687 5690 5693 5696 5699 5701 5703 5705 5707 5709 5711 5712 5714 5715 5716 5716 5717 5717 5717 5717 5717 5717 5716 5715 5714 5712 5711 5709 5707 5705 5702 5700 5697 5694 5690 5687 5683 5680 5676 5672 5668
5676 5680 5683 5686 5689 5692 5694 5696 5699 5701 5703 5705 5707 5708 5709 5711 5711 5712 5712 5712 5712 5712 5712 5711 5711 5710 5709 5707 5705 5703 5701 5699 5696 5694 5691 5687 5684 5681 5677 5673 5670 5666 5662 5658
5675 5679 5682 5685 5688 5690 5692 5694 5696 5698 5700 5701 5703 5705 5706 5706 5707 5707 5707 5707 5707 5706 5706 5705 5704 5703 5701 5700 5698 5695 5693 5690 5688 5685 5682 5678 5675 5671 5668 5664 5660 5656 5652 5649
5675 5678 5681 5684 5686 5688 5690 5692 5694 5696 5697 5698 5700 5701 5701 5702 5702 5702 5702 5701 5701 5700 5699 5698 5697 5696 5694 5692 5690 5687 5685 5682 5679 5676 5673 5669 5666 5663 5659 5656 5652 5648 5645 5641